Change the Weather History Date:

Monday, February 3, 2014

  Actual Average (LRTM) Record (LRTM)
Temperature  
Mean Temperature 34 °F -  
Max Temperature 52 °F 41 °F 44 °F (2008)
Min Temperature 17 °F 23 °F 1 °F (2012)
Degree Days  
Heating Degree Days 30    
Moisture  
Dew Point 15 °F    
Average Humidity 53    
Maximum Humidity 93    
Minimum Humidity 4    
Precipitation  
Precipitation 0.00 in 0.03 in - ()
Sea Level Pressure  
Sea Level Pressure 30.25 in    
Wind  
Wind Speed 5 mph ()    
Max Wind Speed 16 mph    
Max Gust Speed -    
Visibility 11.6 miles    
Events      
Averages and records for this station are not official NWS values.
T = Trace of Precipitation, MM = Missing Value Source: Averaged Metar Reports

Daily Weather History Graph

Daily Weather History Graph

Search for Another Location

Airport or City:

Trip Planner

Search our weather history database for the weather conditions in past years. The results will help you decide how hot, cold, wet, or windy it might be!

Date:

Astronomy

Feb. 03, 2014 Rise Set
Actual Time 7:43 AM EET 5:32 PM EET
Civil Twilight 7:11 AM EET 6:03 PM EET
Nautical Twilight 6:36 AM EET 6:39 PM EET
Astronomical Twilight 6:01 AM EET 7:14 PM EET
Moon 9:19 AM EET (2/3) 10:18 PM EET (2/3)
Length of Visible Light 10h 52m
Length of Day
9h 48m
Waxing Crescent, 17% of the Moon is Illuminated
Feb 3
Waxing Crescent
Feb 6
First Quarter
Feb 15
Full
Feb 22
Last Quarter
Mar 1
New

Hourly Weather History & Observations

Time (EET) Temp. Windchill Dew Point Humidity Pressure Visibility Wind Dir Wind Speed Gust Speed Precip Events Conditions
12:00 AM 31 °F - 18 °F 46% 30.28 in 12 mi SSE 8.9 mph - -  
12:00 AM 30.2 °F 23.4 °F 19.4 °F 64% 30.21 in - SSW 6.9 mph - N/A   Clear
1:00 AM 26 °F - 17 °F 59% 30.31 in 12 mi South 6.7 mph - -  
1:00 AM 28.4 °F - 17.6 °F 64% 30.21 in - Variable 2.3 mph - N/A   Clear
2:00 AM 22 °F - 18 °F 80% 30.32 in 12 mi SSW 4.5 mph - -  
2:00 AM 23.0 °F - 19.4 °F 86% 30.21 in - Variable 2.3 mph - N/A   Clear
3:00 AM 20 °F - 16 °F 79% 30.33 in 12 mi SW 4.5 mph - -  
3:00 AM 23.0 °F 14.7 °F 17.6 °F 80% 30.21 in - WSW 6.9 mph - N/A   Clear
4:00 AM 19 °F - 17 °F 88% 30.34 in 12 mi SW 4.5 mph - -  
4:00 AM 21.2 °F 12.6 °F 17.6 °F 86% 30.21 in - West 6.9 mph - N/A   Clear
5:00 AM 19 °F - 17 °F 88% 30.34 in 12 mi West 4.5 mph - -  
5:00 AM 21.2 °F 14.9 °F 17.6 °F 86% 30.21 in - WSW 4.6 mph - N/A   Clear
5:30 AM 19.4 °F 12.8 °F 17.6 °F 93% 30.24 in - WSW 4.6 mph - N/A   Clear
6:00 AM 18 °F - 16 °F 88% 30.36 in 12 mi SW 4.5 mph - -  
6:00 AM 19.4 °F 12.8 °F 17.6 °F 93% 30.24 in - WSW 4.6 mph - N/A   Clear
6:30 AM 21.2 °F 12.6 °F 17.6 °F 86% 30.24 in - WSW 6.9 mph - N/A   Clear
7:00 AM 18 °F - 16 °F 86% 30.36 in 12 mi SW 4.5 mph - -  
7:00 AM 19.4 °F 10.4 °F 15.8 °F 86% 30.24 in - West 6.9 mph - N/A   Clear
7:30 AM 19.4 °F - 15.8 °F 86% 30.24 in - Variable 2.3 mph - N/A   Clear
8:00 AM 20 °F - 18 °F 87% 30.36 in 31 mi Calm Calm - -  
8:00 AM 17.6 °F - 14.0 °F 86% 30.24 in - WNW 2.3 mph - N/A   Clear
8:30 AM 19.4 °F - 17.6 °F 93% 30.24 in - Variable 2.3 mph - N/A   Clear
9:00 AM 21 °F - 18 °F 85% 30.37 in 31 mi Calm Calm - -  
9:00 AM 24.8 °F - 19.4 °F 80% 30.24 in - Variable 2.3 mph - N/A   Clear
9:30 AM 26.6 °F - 21.2 °F 80% 30.24 in - Calm Calm - N/A   Clear
10:00 AM 28 °F - 22 °F 69% 30.35 in 31 mi WSW 2.2 mph - -  
10:00 AM 28.4 °F - 21.2 °F 74% 30.24 in - Variable 2.3 mph - N/A   Clear
10:30 AM 30.2 °F - 21.2 °F 69% 30.24 in - Variable 2.3 mph - N/A   Clear
11:00 AM 32 °F - 22 °F 54% 30.32 in 31 mi Calm Calm - -  
11:00 AM 32.0 °F - 23.0 °F 69% 30.24 in - Variable 2.3 mph - N/A   Clear
11:30 AM 37.4 °F - 23.0 °F 56% 30.24 in - Variable 2.3 mph - N/A   Clear
12:00 PM 36 °F - 23 °F 48% 30.30 in 31 mi WNW 2.2 mph - -  
12:00 PM 37.4 °F 32.1 °F 24.8 °F 60% 30.24 in - WSW 6.9 mph - N/A   Clear
12:30 PM 39.2 °F - 23.0 °F 52% 30.24 in - Variable 2.3 mph - N/A   Clear
1:00 PM 41 °F - 23 °F 36% 30.28 in 31 mi WSW 2.2 mph - -  
1:00 PM 41.0 °F 38.0 °F 23.0 °F 49% 30.21 in 6.2 mi SW 4.6 mph - N/A   Unknown
1:30 PM 42.8 °F 40.1 °F 23.0 °F 46% 30.21 in - SSW 4.6 mph - N/A   Clear
2:00 PM 45 °F - 22 °F 27% 30.25 in 31 mi South 2.2 mph - -  
2:00 PM 46.4 °F 44.3 °F 23.0 °F 40% 30.21 in - Variable 4.6 mph - N/A   Clear
2:30 PM 50.0 °F - 15.8 °F 26% 30.21 in - Variable 4.6 mph - N/A   Clear
3:00 PM 50 °F - 13 °F 12% 30.22 in 31 mi ESE 4.5 mph - -  
3:00 PM 51.8 °F - 10.4 °F 19% 30.21 in - South 6.9 mph - N/A   Clear
3:30 PM 51.8 °F - -0.4 °F 12% 30.18 in - SSE 16.1 mph - N/A   Clear
4:00 PM 53 °F - -3 °F 4% 30.21 in 31 mi SE 15.7 mph - -  
4:00 PM 51.8 °F - -4.0 °F 10% 30.18 in - South 16.1 mph - N/A   Clear
4:30 PM 46.4 °F 41.9 °F 3.2 °F 17% 30.21 in - SE 9.2 mph - N/A   Clear
5:00 PM 46 °F - 9 °F 11% 30.24 in 31 mi East 8.9 mph - -  
5:00 PM 42.8 °F 38.6 °F 12.2 °F 29% 30.21 in - ESE 6.9 mph - N/A   Clear
5:30 PM 41.0 °F 35.2 °F 10.4 °F 29% 30.21 in - ESE 9.2 mph - N/A   Clear
6:00 PM 41 °F - 8 °F 13% 30.27 in 31 mi East 6.7 mph - -  
6:00 PM 39.2 °F 35.9 °F 10.4 °F 31% 30.21 in - ESE 4.6 mph - N/A   Clear
6:30 PM 37.4 °F 33.8 °F 8.6 °F 30% 30.21 in - Variable 4.6 mph - N/A   Clear
7:00 PM 36 °F - 8 °F 18% 30.29 in 12 mi ENE 2.2 mph - -  
7:00 PM 33.8 °F 27.7 °F 10.4 °F 38% 30.21 in - East 6.9 mph - N/A   Clear
7:30 PM 33.8 °F 29.6 °F 10.4 °F 38% 30.21 in - ENE 4.6 mph - N/A   Clear
8:00 PM 35 °F - 9 °F 20% 30.29 in 12 mi ENE 2.2 mph - -  
8:00 PM 33.8 °F 29.6 °F 8.6 °F 35% 30.21 in - ENE 4.6 mph - N/A   Clear
8:30 PM 33.8 °F 26.4 °F 10.4 °F 38% 30.21 in - East 9.2 mph - N/A   Clear
9:00 PM 37 °F - 7 °F 15% 30.29 in 12 mi East 6.7 mph - -  
9:00 PM 33.8 °F 25.3 °F 12.2 °F 41% 30.21 in - East 11.5 mph - N/A   Clear
10:00 PM 37 °F - 5 °F 14% 30.28 in 12 mi East 8.9 mph - -  
10:00 PM 35.6 °F 29.9 °F 8.6 °F 33% 30.21 in - East 6.9 mph - N/A   Clear
11:00 PM 36 °F - 5 °F 14% 30.29 in 12 mi East 6.7 mph - -  
11:00 PM 33.8 °F 26.4 °F 8.6 °F 35% 30.21 in - East 9.2 mph - N/A   Clear